Tracking 30995 objects as of 7-Jul-2025
HD Live streaming from Space Station
objects crossing your sky now

STARLINK-1542

Track STARLINK-1542 now!
10-day predictions
STARLINK-1542 is classified as:


NORAD ID: 46073
Int'l Code: 2020-055AY
Perigee: 553.2 km
Apogee: 555.5 km
Inclination: 53.1 °
Period: 95.6 minutes
Semi major axis: 6925 km
RCS: Unknown
Launch date: August 7, 2020
Source: United States (US)
Launch site: AIR FORCE EASTERN TEST RANGE (AFETR)
Your satellite tracking list
TIANQI 29
Track 1 satellite(s)




NASA's NSSDC Master Catalog

Two Line Element Set (TLE):
1 46073U 20055AY  25187.19762438  .00000367  00000-0  43568-4 0  9991
2 46073  53.0547 123.1674 0001625  94.2365 265.8810 15.06392632271628
Source of the keplerian elements: AFSPC